Weather History for Hanford, WA

Change the Weather History Date:

Wednesday, November 21, 2012

  Actual Average Record
Temperature  
Mean Temperature 46 °F -  
Max Temperature 53 °F 45 °F 57 °F (1997)
Min Temperature 39 °F 31 °F 19 °F (2000)
Degree Days  
Heating Degree Days 19    
Moisture  
Dew Point 35 °F    
Average Humidity 68    
Maximum Humidity 95    
Minimum Humidity 43    
Precipitation  
Precipitation 0.14 in - - ()
Sea Level Pressure  
Sea Level Pressure 29.81 in    
Wind  
Wind Speed 13 mph (SW)    
Max Wind Speed 29 mph    
Max Gust Speed 44 mph    
Visibility 15 miles    
Events Rain    
Averages and records for this station are not official NWS values.
T = Trace of Precipitation, MM = Missing Value Source: NWS Daily Summary

Daily Weather History Graph

Daily Weather History Graph

Search for Another Location

Airport:

Trip Planner

Search our weather history database for the weather conditions in past years. The results will help you decide how hot, cold, wet, or windy it might be!

Date:

Astronomy

Nov. 21, 2012 Rise Set
Actual Time 7:09 AM PST 4:18 PM PST
Civil Twilight 6:36 AM PST 4:52 PM PST
Nautical Twilight 5:59 AM PST 5:29 PM PST
Astronomical Twilight 5:23 AM PST 6:05 PM PST
Moon 12:57 PM PST 12:11 AM PST
Length of Visible Light 10h 16m
Length of Day
9h 09m
Waxing Gibbous, 63% of the Moon is Illuminated
Nov 21
Waxing Gibbous
Nov 28
Full
Dec 6
Last Quarter
Dec 13
New
Dec 19
First Quarter

Hourly Weather History & Observations

Time (PST) Temp. Windchill Dew Point Humidity Pressure Visibility Wind Dir Wind Speed Gust Speed Precip Events Conditions
12:50 AM 43.5 °F - 40.3 °F 88% 29.65 in 15.0 mi ESE 2.3 mph - 0.00 in Rain Light Rain
1:50 AM 39.4 °F 37.2 °F 37.8 °F 94% 29.63 in 15.0 mi ESE 3.5 mph - 0.01 in   Scattered Clouds
2:50 AM 39.6 °F 34.7 °F 38.1 °F 95% 29.62 in 15.0 mi SW 6.9 mph - N/A   Mostly Cloudy
3:50 AM 41.7 °F 38.0 °F 39.7 °F 93% 29.62 in 15.0 mi WSW 5.8 mph - 0.00 in Rain Light Rain
4:50 AM 43.5 °F 40.1 °F 41.7 °F 93% 29.65 in 12.0 mi South 5.8 mph - 0.11 in Rain Light Rain
5:50 AM 46.9 °F - 37.8 °F 70% 29.65 in 15.0 mi SSW 26.5 mph 39.1 mph 0.02 in   Overcast
6:50 AM 44.1 °F 37.1 °F 36.9 °F 76% 29.68 in 15.0 mi SW 15.0 mph - N/A   Partly Cloudy
7:50 AM 44.1 °F 35.0 °F 35.8 °F 73% 29.71 in 15.0 mi SSW 24.2 mph 34.5 mph N/A   Partly Cloudy
8:50 AM 46.8 °F - 34.3 °F 62% 29.75 in 15.0 mi SW 28.8 mph 42.6 mph N/A   Partly Cloudy
9:50 AM 48.7 °F - 34.0 °F 57% 29.81 in 15.0 mi SW 20.7 mph 33.4 mph N/A   Partly Cloudy
10:50 AM 50.7 °F - 31.6 °F 48% 29.85 in 15.0 mi SW 28.8 mph 43.7 mph N/A   Partly Cloudy
11:50 AM 53.1 °F - 33.3 °F 47% 29.87 in 15.0 mi WSW 21.9 mph 32.2 mph N/A   Partly Cloudy
12:50 PM 52.9 °F - 30.6 °F 43% 29.87 in 15.0 mi SW 28.8 mph 43.7 mph N/A   Partly Cloudy
1:50 PM 51.4 °F - 34.3 °F 52% 29.91 in 15.0 mi SW 25.3 mph 38.0 mph N/A   Partly Cloudy
2:50 PM 50.9 °F - 32.7 °F 50% 29.94 in 15.0 mi SSW 26.5 mph 35.7 mph N/A   Mostly Cloudy
3:50 PM 48.0 °F - 32.7 °F 55% 29.99 in 15.0 mi SW 21.9 mph 32.2 mph N/A   Partly Cloudy
4:50 PM 45.0 °F 38.5 °F 32.5 °F 62% 30.03 in 15.0 mi SW 13.8 mph - N/A   Partly Cloudy
5:50 PM 43.0 °F 36.8 °F 30.6 °F 62% 30.05 in 15.0 mi WSW 11.5 mph - N/A   Partly Cloudy
6:50 PM 40.8 °F 35.0 °F 30.0 °F 65% 30.11 in 15.0 mi WSW 9.2 mph - N/A   Clear